Date String (YYYY-MM-DD hh:mm:ss) UTC,Instrument flags,Ambient pressure (hPa),Sample flow (lpm),Bypass flow (lpm),Sample temperature (°C),Ambient temperature (°C),ASC tube jacket temperature (°C),LED temperature (°C),Box temperature (°C),Sample RH (%),Span deviation,Mass concentration (μg/m³),Mass concentration (μg/m³),Mass concentration (μg/m³)
DateTimeUTC,F1_M11,P_M11,Q1_M11,Q2_M11,T1_M11,T2_M11,T3_M11,T4_M11,T5_M11,U1_M11,ZSPAN_M11,X0_M11,X2_M11,X1_M11
2022-11-05 14:00:00,,0811.2,5.00,0.00,22.1,20.4,00.0,31.1,23.8,15.3,0000.0,0005.96,0000.71,0000.46
2022-11-05 14:01:00,,0811.2,4.99,0.00,22.1,20.4,00.0,31.0,23.8,15.2,0000.0,0005.95,0000.71,0000.45
2022-11-05 14:02:00,,0811.2,4.99,0.00,22.0,20.4,00.0,31.0,23.8,14.9,0000.0,0005.94,0000.70,0000.44
2022-11-05 14:03:00,,0811.2,5.00,0.00,22.0,20.4,00.0,31.0,23.8,14.9,0000.0,0005.78,0000.68,0000.43
2022-11-05 14:04:00,,0811.2,5.01,0.00,22.0,20.4,00.0,31.0,23.8,15.1,0000.0,0004.61,0000.65,0000.41
2022-11-05 14:05:00,,0811.5,4.99,0.00,22.0,20.4,00.0,31.0,23.7,15.1,0000.0,0003.73,0000.63,0000.39
2022-11-05 14:06:00,,0811.3,5.00,0.00,22.0,20.4,00.0,31.0,23.8,14.9,0000.0,0002.84,0000.59,0000.38
2022-11-05 14:07:00,,0811.4,5.01,0.00,22.0,20.4,00.0,31.0,23.7,15.1,0000.0,0002.79,0000.56,0000.37
2022-11-05 14:08:00,,0811.5,5.00,0.00,22.0,20.4,00.0,30.9,23.8,15.2,0000.0,0002.15,0000.56,0000.35
2022-11-05 14:09:00,,0811.4,4.99,0.00,22.0,20.5,00.0,30.9,23.8,15.4,0000.0,0001.05,0000.53,0000.34
2022-11-05 14:10:00,,0811.3,5.00,0.00,22.0,20.5,00.0,30.9,23.8,15.5,0000.0,0001.02,0000.53,0000.33
2022-11-05 14:11:00,,0811.2,5.00,0.00,22.0,20.5,00.0,30.9,23.8,15.4,0000.0,0001.00,0000.52,0000.33
2022-11-05 14:12:00,,0811.2,5.01,0.00,22.0,20.5,00.0,30.9,23.8,15.5,0000.0,0001.01,0000.54,0000.33
2022-11-05 14:13:00,,0811.3,4.99,0.00,22.0,20.5,00.0,30.9,23.8,15.8,0000.0,0001.12,0000.57,0000.34
2022-11-05 14:14:00,,0811.3,5.00,0.00,22.0,21.0,00.0,30.8,23.9,15.4,0000.0,0002.58,0000.57,0000.35
2022-11-05 14:15:00,,0811.4,5.01,0.00,22.1,22.1,00.0,30.8,24.1,15.2,0000.0,0002.74,0000.59,0000.37
2022-11-05 14:16:00,,0811.3,5.00,0.00,22.2,22.5,00.0,30.9,24.3,15.1,0000.0,0002.79,0000.58,0000.37
2022-11-05 14:17:00,,0811.5,4.99,0.00,22.3,22.1,00.0,30.9,24.3,15.0,0000.0,0004.06,0000.57,0000.37
2022-11-05 14:18:00,,0811.5,5.00,0.00,22.3,21.8,00.0,30.9,24.2,15.3,0000.0,0004.09,0000.58,0000.36
2022-11-05 14:19:00,,0811.6,5.01,0.00,22.3,21.5,00.0,31.0,24.2,15.3,0000.0,0004.90,0000.59,0000.37
2022-11-05 14:20:00,,0811.6,4.99,0.00,22.3,21.4,00.0,31.0,24.2,15.3,0000.0,0006.09,0000.62,0000.37
2022-11-05 14:21:00,,0811.5,5.01,0.00,22.3,21.3,00.0,31.0,24.1,15.3,0000.0,0006.80,0000.62,0000.37
2022-11-05 14:22:00,,0811.6,4.98,0.00,22.3,21.1,00.0,31.0,24.1,15.3,0000.0,0006.85,0000.64,0000.37
2022-11-05 14:23:00,,0811.6,5.00,0.00,22.3,21.0,00.0,31.0,24.1,15.5,0000.0,0006.90,0000.64,0000.37
2022-11-05 14:24:00,,0811.3,5.00,0.00,22.3,21.0,00.0,31.0,24.1,15.3,0000.0,0006.90,0000.62,0000.37
2022-11-05 14:25:00,,0810.4,5.00,0.00,22.2,20.9,00.0,31.0,24.1,15.1,0000.0,0005.37,0000.59,0000.36
2022-11-05 14:26:00,,0811.0,5.00,0.00,22.2,20.7,00.0,31.0,24.0,15.0,0000.0,0005.10,0000.57,0000.36
2022-11-05 14:27:00,,0811.1,5.00,0.00,22.2,20.7,00.0,31.0,24.0,15.1,0000.0,0005.20,0000.61,0000.37
2022-11-05 14:28:00,,0811.4,4.99,0.00,22.2,20.7,00.0,31.0,24.0,15.1,0000.0,0004.15,0000.67,0000.39
2022-11-05 14:29:00,,0811.6,5.00,0.00,22.2,20.6,00.0,31.1,23.9,15.3,0000.0,0004.05,0000.69,0000.41
2022-11-05 14:30:00,,0811.6,5.00,0.00,22.1,20.6,00.0,31.0,23.9,15.0,0000.0,0003.39,0000.68,0000.43
2022-11-05 14:31:00,,0811.4,5.00,0.00,22.1,20.5,00.0,31.0,23.9,14.9,0000.0,0002.48,0000.68,0000.44
2022-11-05 14:32:00,,0811.3,5.01,0.00,22.1,20.5,00.0,31.0,23.8,15.0,0000.0,0001.31,0000.66,0000.45
2022-11-05 14:33:00,,0811.2,4.99,0.00,22.1,20.5,00.0,31.0,23.8,15.2,0000.0,0001.37,0000.66,0000.46
2022-11-05 14:34:00,,0811.5,5.00,0.00,22.1,20.5,00.0,31.0,23.8,14.9,0000.0,0001.63,0000.66,0000.46
2022-11-05 14:35:00,,0811.6,5.00,0.00,22.0,20.5,00.0,31.0,23.8,14.9,0000.0,0001.51,0000.64,0000.46
2022-11-05 14:36:00,,0811.7,5.00,0.00,22.0,20.4,00.0,31.0,23.8,15.1,0000.0,0001.84,0000.66,0000.46
2022-11-05 14:37:00,,0811.7,5.01,0.00,22.0,20.4,00.0,30.9,23.8,15.3,0000.0,0002.07,0000.71,0000.48
2022-11-05 14:38:00,,0811.8,4.99,0.00,22.0,20.4,00.0,31.0,23.7,15.4,0000.0,0002.08,0000.71,0000.49
2022-11-05 14:39:00,,0811.5,5.00,0.00,22.0,20.4,00.0,30.9,23.7,15.5,0000.0,0002.03,0000.70,0000.48
2022-11-05 14:40:00,,0811.7,5.00,0.00,21.9,20.4,00.0,30.9,23.6,15.4,0000.0,0002.09,0000.72,0000.49
2022-11-05 14:41:00,,0811.6,5.00,0.00,21.9,20.4,00.0,30.9,23.7,15.1,0000.0,0002.19,0000.76,0000.50
2022-11-05 14:42:00,,0811.6,5.00,0.00,21.9,20.3,00.0,30.9,23.6,15.1,0000.0,0002.52,0000.81,0000.50
2022-11-05 14:43:00,,0811.6,5.01,0.00,21.9,20.3,00.0,30.9,23.6,15.2,0000.0,0002.74,0000.84,0000.49
2022-11-05 14:44:00,,0811.6,5.01,0.00,21.9,20.3,00.0,30.9,23.7,15.0,0000.0,0002.63,0000.82,0000.47
2022-11-05 14:45:00,,0811.6,4.98,0.00,21.9,20.3,00.0,30.8,23.7,15.1,0000.0,0002.32,0000.81,0000.48
2022-11-05 14:46:00,,0811.7,5.00,0.00,21.9,20.3,00.0,30.8,23.6,15.3,0000.0,0002.36,0000.83,0000.49
2022-11-05 14:47:00,,0811.6,5.00,0.00,21.9,20.3,00.0,30.8,23.6,15.3,0000.0,0002.15,0000.81,0000.49
2022-11-05 14:48:00,,0811.6,5.01,0.00,21.9,20.3,00.0,30.8,23.7,15.2,0000.0,0002.63,0000.79,0000.47
2022-11-05 14:49:00,,0811.7,5.00,0.00,21.9,20.3,00.0,30.8,23.7,15.2,0000.0,0002.60,0000.80,0000.47
2022-11-05 14:50:00,,0811.7,5.00,0.00,21.8,20.3,00.0,30.8,23.6,15.2,0000.0,0002.54,0000.78,0000.46
2022-11-05 14:51:00,,0811.7,5.00,0.00,21.8,20.5,00.0,30.7,23.7,15.1,0000.0,0002.60,0000.77,0000.44
2022-11-05 14:52:00,,0811.7,5.02,0.00,21.9,21.5,00.0,30.7,23.9,15.3,0000.0,0002.79,0000.76,0000.44
2022-11-05 14:53:00,,0811.7,4.98,0.00,22.1,22.3,00.0,30.8,24.2,15.1,0000.0,0002.67,0000.72,0000.43
2022-11-05 14:54:00,,0811.7,5.00,0.00,22.1,22.0,00.0,30.8,24.2,15.1,0000.0,0002.42,0000.67,0000.43
2022-11-05 14:55:00,,0811.6,5.01,0.00,22.1,21.7,00.0,30.8,24.1,15.2,0000.0,0002.46,0000.70,0000.44
2022-11-05 14:56:00,,0811.6,4.98,0.00,22.1,21.4,00.0,30.9,24.1,15.1,0000.0,0002.41,0000.68,0000.43
2022-11-05 14:57:00,,0811.6,5.01,0.00,22.1,21.3,00.0,30.9,24.0,15.0,0000.0,0002.39,0000.66,0000.42
2022-11-05 14:58:00,,0811.5,5.00,0.00,22.1,21.1,00.0,30.9,24.0,15.1,0000.0,0002.27,0000.65,0000.41
2022-11-05 14:59:00,,0811.4,4.99,0.00,22.1,21.0,00.0,30.9,24.0,15.2,0000.0,0001.70,0000.65,0000.42
